Location: Krakow
(50.0830°N, 19.9170°E)
Time: 23:36:42
(UTC+01:00)

Courier 1B Rocket - Pass Details

Date: 20 December 2023
Orbit: 920 x 1202 km, 28.2° (Epoch: 24 February)

Event Time Altitude Azimuth Distance (km) Brightness Sun altitude
Rises 07:34:54 0° 231° (SW) 4,090 8.1 -1.0°
Reaches altitude 10° 07:39:42 10° 206° (SSW) 3,107 7.8 -0.3°
Maximum altitude 07:42:52 13° 181° (S) 2,862 8.0 0.1°
Drops below altitude 10° 07:46:00 10° 157° (SSE) 3,055 8.8 0.4°
Sets 07:50:38 0° 131° (SE) 3,960 12.5 1.0°
